Simultaneous Nadir Overpasses (SNOs) Predictions

Prediction of SNOs between METOP-B and NOAA-19 Satellite Orbit:

Table of predicted SNOs for the next 14.0 days since TLE Epoch: 11/29/2019
Index Date (METOP-B) Time (METOP-B) Lat,Lon (METOP-B) SZA (METOP-B ) Date (NOAA-19) Time (NOAA-19) Lat,Lon (NOAA-19) SZA (NOAA-19 ) Distance(km) Time Diff (sec)
1 12/06/2019 05:21:05 79.66, 119.01 102.74 12/06/2019 05:19:53 79.65, 119.03 102.72 0.96 72
2 12/06/2019 06:11:46 -79.66, -73.68 77.26 12/06/2019 06:10:53 -79.66, -73.80 77.28 2.53 53
3 12/06/2019 07:02:27 79.65, 93.56 102.73 12/06/2019 07:01:54 79.66, 93.45 102.73 2.57 33
4 12/06/2019 07:53:08 -79.65, -99.12 77.27 12/06/2019 07:52:53 -79.64, -99.10 77.28 0.67 15
5 12/06/2019 08:43:49 79.64, 68.12 102.72 12/06/2019 08:43:54 79.64, 68.17 102.73 1.05 5
6 12/06/2019 09:34:29 -79.64,-124.56 77.28 12/06/2019 09:34:53 -79.65,-124.68 77.27 2.95 24
7 12/06/2019 10:25:10 79.63, 42.68 102.71 12/06/2019 10:25:54 79.65, 42.59 102.74 3.23 44
8 12/06/2019 11:15:51 -79.63,-150.00 77.29 12/06/2019 11:16:53 -79.63,-149.98 77.26 1.03 62




NCC Satellite Simultaneous Nadir Overpasses (SNOs) Prediction Service
